Regional Weather Roundup
Issued by NWS

Home | Current Version | Previous Version | Text Only | Print | Product List | Glossary Off
Versions: 1 2 3 4 5 6 7 8 9 10 11 12 13 14 15 16 17 18 19 20 21 22 23 24 25 26 27 28 29 30 31 32 33 34 35 36 37 38 39 40 41 42 43 44 45 46 47 48 49 50

000
ASUS43 KIND 291900
RWRIN

WEATHER ROUNDUP FOR INDIANA
NATIONAL WEATHER SERVICE INDIANAPOLIS IN
200 PM EST THU JAN 29 2015

NOTE: "FAIR" INDICATES FEW OR NO CLOUDS BELOW 12,000 FEET WITH NO
SIGNIFICANT WEATHER AND/OR OBSTRUCTIONS TO VISIBILITY.

* - STATION DOES NOT REPORT WEATHER SUCH AS PRECIPITATION OR FOG.

+ - STATION NOT QUALITY CONTROLLED BY THE NATIONAL WEATHER SERVICE.
    USE DATA WITH CAUTION...ESPECIALLY DEWPOINT AND RELATIVE
    HUMIDITY OBSERVATIONS.

INZ001>003-010>013-019-020-292000-
NORTHWEST INDIANA

CITY           SKY/WX    TMP DP  RH WIND       PRES   REMARKS
GARY /AIRPORT/ CLOUDY    36  23  60 NW14G29   29.94R
VALPARAISO     NOT AVBL

$$

LMZ046-743>745-292000-
SOUTHERN LAKE MICHIGAN

STATION/POSITION TIME  TEMP WIND        PRES
                       AIR  DIR/SP/G
                 (UTC) (F)  (DEG/KT/KT) (MB)
MICHIGAN CITY    1800   33  300/ 27/ 30   N/A

$$

INZ004-005-014>016-021>024-292000-
NORTH CENTRAL INDIANA

CITY           SKY/WX    TMP DP  RH WIND       PRES   REMARKS
ELKHART        LGT RAIN  34  28  80 NW14G21   29.84R WCI  24
GOSHEN         CLOUDY    34  30  85 NW20G31   29.82R FOG     WCI  23
PERU/GRISSOM   DRIZZLE   33  31  94 NW18      29.88R FOG     WCI  22
SOUTH BEND     CLOUDY    34  29  82 NW20G29   29.86R HAZE    WCI  23

$$

INZ006>009-017-018-025>027-292000-
NORTHEAST INDIANA

CITY           SKY/WX    TMP DP  RH WIND       PRES   REMARKS
FORT WAYNE     DRIZZLE   35  32  88 W13       29.80R FOG     WCI  26

$$

INZ028-029-035-036-043>045-051>053-292000-
WEST CENTRAL INDIANA

CITY           SKY/WX    TMP DP  RH WIND       PRES   REMARKS
GREENCASTLE +  CLOUDY    32  30  93 W12G20    29.97R FOG     WCI  23
LAFAYETTE      CLOUDY    34  30  85 NW15      29.95R FOG     WCI  24
TERRE HAUTE    CLOUDY    36  30  79 NW17G24   30.01R

$$

INZ030>032-037>040-046>048-054>057-064-065-292000-
CENTRAL INDIANA

CITY           SKY/WX    TMP DP  RH WIND       PRES   REMARKS
COLUMBUS       CLOUDY    37  30  75 W23G32    29.94R
INDIANAPOLIS   FRZ DRZL  32  31  96 W22G32    29.94R FOG     WCI  19
-EAGLE CREEK   CLOUDY    34  31  88 W20G26    29.92R FOG     WCI  23
KOKOMO *+      CLOUDY    34  30  86 NW21G29   29.88R WCI  22
MT COMFORT *+  CLOUDY    34  34 100 W20       29.91R WCI  22
SHELBYVILLE    CLOUDY    37  32  82 W16G26    29.91R HAZE

$$

INZ033-034-041-042-049-050-058-059-292000-
EAST CENTRAL INDIANA

CITY           SKY/WX    TMP DP  RH WIND       PRES   REMARKS
MUNCIE         CLOUDY    35  33  92 W17G26    29.84R FOG     WCI  25

$$

INZ060-061-067>069-081>083-085>088-292000-
SOUTHWEST INDIANA

CITY           SKY/WX    TMP DP  RH WIND       PRES   REMARKS
EVANSVILLE     CLOUDY    43  34  70 W9G25     30.09R
HUNTINGBURG *+ CLOUDY    39  32  75 NW20G30   30.06R

$$

INZ062-063-066-070>080-084-089>092-292000-
SOUTH CENTRAL AND SOUTHEAST INDIANA

CITY           SKY/WX    TMP DP  RH WIND       PRES   REMARKS
BLOOMINGTON    CLOUDY    35  33  92 NW15G26   29.98R FOG     WCI  25

$$



USA.gov is the U.S. government's official web portal to all federal, state and local government web resources and services.